Flag for Brazil Weather past 2 weeks in Pirassununga, São Paulo, Brazil

Now
63 °F

Clear.


Feels Like: 63 °F
Forecast: 48 / 74 °F
Wind: 7 mph from Southwest

Location: Pirassununga Airport

Current Time: Jul 28, 2014 at 10:19:36 PM

Latest Report: Jul 28, 2014 at 9:00 PM


Visibility: 10 mi

Pressure: 30.33 "Hg

Humidity: 83%

Dew point: 57 °F

Location of PirassunungaLocation

Historic Weather in Pirassununga — Graph

°F

Pirassununga temperature yesterday

Maximum temperature yesterday: 66 °F (at 2:00 PM)
Minimum temperature yesterday: 57 °F (at 10:00 PM)
Average temperature yesterday: 62 °F

Past Weeks' High & Low Weather Summary

 TemperatureHumidityPressure
High82 °F (Jul 17, 4:00 PM)100% (Jul 14, 6:00 AM)30.36 "Hg (Jul 14, 6:00 AM)
Low39 °F (Jul 20, 7:00 AM)27% (Jul 20, 4:00 PM)30.01 "Hg (Jul 24, 12:00 PM)
Average63 °F71%30.19 "Hg
* Reported Jul 13 9:00 PM — Jul 28 9:00 PM, Pirassununga, Weather by CustomWeather, © 2014

Note: Actual official high and low records may vary slightly from our data, if they occured in-between our weather recording intervals... More about our weather records

Advertising

Pirassununga weather history for previous 24 hours

 ConditionsComfort  
Time TempWeatherWind HumidityBarometerVisibility
9:00 PM
Jul 28
63 °FClear.7 mph83%30.33 "Hg10 mi
8:00 PM64 °FPartly cloudy.6 mph78%30.33 "HgN/A
7:00 PM68 °FPassing clouds.6 mph69%30.30 "HgN/A
6:00 PM70 °FPassing clouds.8 mph60%30.30 "HgN/A
5:00 PM72 °FPassing clouds.3 mph61%30.27 "HgN/A
4:00 PM73 °FScattered clouds.6 mph53%30.27 "HgN/A
3:00 PM73 °FScattered clouds.6 mph53%30.27 "HgN/A
2:00 PM73 °FScattered clouds.6 mph53%30.27 "HgN/A
1:00 PM72 °FScattered clouds.5 mph57%30.30 "HgN/A
12:00 PM70 °FScattered clouds.7 mph60%30.33 "HgN/A
11:00 AM70 °FPassing clouds.2 mph64%30.36 "HgN/A
10:00 AM64 °FSunny.2 mph78%30.36 "Hg10 mi
9:00 AM59 °FSunny.5 mph88%30.33 "Hg10 mi
8:00 AM55 °FSunny.3 mph100%30.33 "Hg10 mi
7:00 AM54 °FSunny.5 mph100%30.33 "Hg10 mi
6:00 AM52 °FSunny.2 mph100%30.30 "Hg10 mi
11:00 PM
Jul 27
59 °FMostly cloudy.6 mph94%30.33 "HgN/A
10:00 PM57 °FClear.3 mph94%30.33 "Hg10 mi
Weather by CustomWeather, © 2014

See weather overviewHow to use our weather pages